LiveATC.Net - Listen to live air traffic control over the Internet!


ICAO: KHWD  IATA: HWD   Airport: Hayward Executive Airport
City: Hayward   State/Province: California
Country: United States   Continent: North America
KHWD METAR Weather: KHWD 031654Z 00000KT 10SM CLR 18/13 A3002 RMK AO2 SLP175 T01830128
KHWD ADS-B Flight Tracking  (ADSBExchange)
KHWD Flight Activity (FlightAware)
KHWD Airport Info   (iFlightPlanner)
KHWD VFR Sectional Chart   (iFlightPlanner) 
KHWD IFR Low Altitude Chart   (iFlightPlanner) 
KHWD IFR High Altitude Chart   (iFlightPlanner) 

KHWD Ground/Tower
Feed Status: UP   Listeners: 4
Listen in your browser - HTML5 player (in browser, HTML5)
Click here to listen with your own player (launches your MP3 player)
Archive Access: KHWD Ground/Tower
FacilityFrequency
Hayward Ground121.400
Hayward Tower118.900
Hayward Tower120.200

NOTICE

Unauthorized use prohibited. See LiveATC.net Terms of Service


Airport/ARTCC Code
Frequency Search
(e.g., 124.400, 128.75)
Site-wide search
 


Browse Feeds
Top 50 Feeds
HF Oceanic Feeds
Coverage Map
Bad Weather Areas

LiveATC FAQ

Increase Coverage

Contact LiveATC.net
Press Inquiries

LiveATC on iPhone
LiveATC on Android

LiveATC Mobile
(Mobile browser)

ATC Audio Archives
Interesting Recordings

LiveATC Forums


Home Page
About LiveATC.net


Terms of Use
Privacy Policy

AIRMETs/SIGMETs

FAA Airport Status
NAS Status
Arrival Demand


Server Software By:
Icecast.org
Liquidsoap